This demonstration page uses our WeatherBlox Daily Observations layout. Learn more.

Left ArrowRight Arrow

41.55636, -103.73856

Hourly Observations for February 14, 2020

Temp ( °F °C ) Dew Point ( °F °C ) Humidity (%) Winds ( mph kmh ) Pressure ( in mb ) Visibility ( mi km ) Precip ( " mm )
12:53 am 00:53 Clear 24 -4.4 14 -10 65 65 VRB 3 6 30.07 1018 10 16 N/A
1:53 am 01:53 Clear 26 -3.3 15 -9.4 63 63 S 8 13 30.04 1017 10 16 N/A
2:53 am 02:53 Clear 26 -3.3 15 -9.4 63 63 S 9 15 30.01 1016 10 16 N/A
3:53 am 03:53 Clear 20 -6.7 13 -10.6 74 74 SE 7 11 30.00 1016 10 16 N/A
4:53 am 04:53 Clear 16 -8.9 12 -11.1 84 84 E 7 11 30.00 1016 10 16 N/A
5:53 am 05:53 Clear 18 -7.8 13 -10.6 81 81 E 7 11 30.00 1016 10 16 N/A
6:53 am 06:53 Sunny 19 -7.2 13 -10.6 77 77 E 7 11 30.00 1016 10 16 N/A
7:53 am 07:53 Sunny 26 -3.3 18 -7.8 71 71 E 3 6 29.98 1015 10 16 N/A
8:53 am 08:53 Sunny 33 0.6 23 -5 66 66 E 6 9 29.94 1014 10 16 N/A
9:53 am 09:53 Sunny 43 6.1 25 -3.9 49 49 S 3 6 29.88 1012 10 16 N/A
10:53 am 10:53 Sunny 56 13.3 24 -4.4 29 29 WSW 10 17 29.82 1010 10 16 N/A
11:53 am 11:53 Sunny 56 13.3 24 -4.4 29 29 WSW 21 33 29.80 1009 10 16 N/A
12:53 pm 12:53 Sunny 61 16.1 22 -5.6 22 22 W 15 24 29.75 1007 10 16 N/A
1:53 pm 13:53 Sunny 61 16.1 23 -5 23 23 W 22 35 29.73 1007 10 16 N/A
2:53 pm 14:53 Sunny 59 15 21 -6.1 23 23 W 20 31 29.73 1007 10 16 N/A
3:53 pm 15:53 Sunny 57 13.9 22 -5.6 26 26 WNW 9 15 29.77 1008 10 16 N/A
4:53 pm 16:53 Sunny 52 11.1 18 -7.8 26 26 WNW 14 22 29.81 1009 10 16 N/A
5:53 pm 17:53 Clear 47 8.3 19 -7.2 33 33 WNW 10 17 29.83 1010 10 16 N/A
6:53 pm 18:53 Partly Cloudy 46 7.8 19 -7.2 34 34 WNW 12 19 29.86 1011 10 16 N/A
7:53 pm 19:53 Clear 47 8.3 19 -7.2 33 33 WNW 15 24 29.85 1011 10 16 N/A
8:44 pm 20:44 Mostly Clear 39 4 25 -4 56 56 N 22 35 29.91 1013 10 16 N/A
8:53 pm 20:53 Mostly Clear 37 2.8 27 -2.8 67 67 N 18 30 29.90 1013 10 16 N/A
9:53 pm 21:53 Mostly Cloudy 34 1.1 23 -5 64 64 NNW 22 35 29.95 1014 10 16 N/A
10:53 pm 22:53 Mostly Cloudy 32 undefined 23 -5 69 69 WNW 10 17 29.96 1014 10 16 N/A
11:53 pm 23:53 Mostly Cloudy 31 -0.6 23 -5 72 72 W 10 17 29.98 1015 10 16 N/A

Powered by AerisWeather